カタログに戻る

DELTA 1 DEB

運用中SSO
NORAD 10653·DEBRIS·🇺🇸 United States

打ち上げ Jul 29, 1976 から Vandenberg Space Force Base

Loading…

次のパス (今後24時間)

TLE

最新Source: Space-Track

元期: Sep 13, 2026, 21:00 UTC

1 10653U 76077P   26256.87542515  .00000056  00000-0  91331-3 0  9991
2 10653 102.6596  17.2845 0127857 267.0715 214.0579 12.24296206239984

AllMySatでDELTA 1 DEBをリアルタイム追跡

Download on the App Store